Погода в Островянском

Россия / Ростовская область     46°45′42″N   42°12′25″E
темп.,
°C
ветер,
м/с
пор.,
м/с
влажн.,
%
обл.,
%
осадки,
мм/ч
давл.,
гПа
погр.,
м
7 мая, пт
пт700:00+13ююв51361100 0.0 1014327
03:00+11юв5116489 0.0 1014295
06:00+10ююв5106790 0.0 1015256
09:00+15ю4561100 0.1 1016442
12:00+20зюз5659100 0.1 10161378
15:00+20з56460 0.2 10161745
18:00+18з4764100 0.0 1016234
21:00+15з23688 0.0 101728
8 мая, сб
сб800:00+12сз118328 0.0 101810
03:00+11ю2287100 0.0 101713
06:00+12ю228513 0.0 101756
09:00+18ю3464100 0.0 1016477
12:00+21ююв4454100 0.0 10151079
15:00+22ююв4652100 0.0 10141453
18:00+20юв3565100 0.0 1013111
21:00+18ююв3368100 0.0 101226
9 мая, вс
вс900:00+15юв357794 0.0 101177
03:00+13юв487979 0.0 1010149
06:00+13юв51176100 0.0 1008270
09:00+15юв2268100 0.0 1009370
12:00+15юв2276100 0.3 1010424
15:00+14юз2283100 0.4 1010381
18:00+8зсз81290100 0.1 1014533
21:00+6сз81389100 0.3 1017698
10 мая, пн
пн1000:00+6сз81394100 1.5 1018815
03:00+6сз91393100 2.8 1018876
06:00+6сз81294100 0.7 1018826
09:00+7зсз71093100 2.1 1018771
12:00+6зсз71195100 2.9 1017577
15:00+6з81297100 6.1 1015490
18:00+7з81398100 6.8 1013479
21:00+11ссз31197100 13.8 1009547
11 мая, вт
вт1100:00+9ссв71197100 3.4 1007486
03:00+7всв91496100 3.4 1008675
06:00+6св111594100 0.1 1009646
09:00+6ююв101496100 0.4 1012635
12:00+7ююв61093100 0.1 1017974
15:00+9ю81191100 0.3 1019909
18:00+9ююв51084100 0.0 1021528
21:00+9в338498 0.1 102156